• Join FlightAware (Why Join?)
  • Login
  • US Flag GB Flag 
04:30 EDT


 

Airport Tracker/Info


-or-


 

Live Flight TrackerFlight Track Log ✈ CTL22 ✈ 17-Apr-2013 ✈ KBKL - KGRR

Flight Track Log - Related Links

Times and Time Zones

All times are in EDT time to prevent confusion due to time zone crossing. See the CTL22 flight status page for this flight to view local times or setup timezone preferences in your user account.

Time Position Orientation Groundspeed Altitude Reporting Facility
EDT Latitude Longitude Course Direction KTS MPH feet Rate Location/Type
21:30 41.5667 -81.7017 338° Northwest 150 173 2,200  Level Cleveland Center
21:31 41.6125 -81.7217 342° North 168 193 3,200 960 Climbing Cleveland Center
21:32 41.6369 -81.7639 308° West 171 197 4,300 960 Climbing Cleveland Center
21:33 41.6533 -81.8058 298° West 137 158 5,300 840 Climbing Cleveland Center
21:34 41.6717 -81.8481 300° West 129 148 6,000 420 Climbing Cleveland Center
21:35 41.6919 -81.8983 298° West 139 160 6,200  Climbing Cleveland Center
21:36 41.7058 -81.9514 289° West 144 166 6,000 -60 Descending Cleveland Center
21:37 41.7281 -81.9994 302° West 149 171 6,100  Climbing Cleveland Center
21:38 41.7506 -82.0500 301° West 155 178 6,100 -60 Level Cleveland Center
21:39 41.7686 -82.0975 297° West 155 178 6,000  Descending Cleveland Center
21:40 41.7908 -82.1456 302° West 155 178 6,100  Climbing Cleveland Center
21:41 41.8089 -82.1961 296° West 155 178 6,100 -60 Level Cleveland Center
21:42 41.8292 -82.2439 300° West 155 178 6,000  Descending Cleveland Center
21:43 41.8472 -82.2947 296° West 155 178 6,100  Climbing Cleveland Center
21:44 41.8631 -82.3453 293° West 155 178 6,100  Level Cleveland Center
21:44 41.8711 -82.3567 314° West 147 169 6,100  Level Cleveland Center
21:45 41.8831 -82.3933 294° West 150 173 6,100  Level Cleveland Center
21:45 41.8911 -82.4131 299° West 148 170 6,100 -120 Level Cleveland Center
21:46 41.9011 -82.4411 296° West 150 173 6,000  Descending Cleveland Center
21:46 41.9092 -82.4581 303° West 148 170 6,100  Climbing Cleveland Center
21:47 41.9211 -82.4919 304° West 150 173 6,000 -120 Descending Cleveland Center
21:47 41.9292 -82.5089 303° West 151 174 6,000  Level Cleveland Center
21:48 41.9411 -82.5400 297° West 150 173 6,000  Level Cleveland Center
21:48 41.9511 -82.5600 304° West 154 177 6,000  Level Cleveland Center
21:49 41.9611 -82.5908 294° West 150 173 6,000  Level Cleveland Center
21:49 41.9692 -82.6050 307° West 155 178 6,000 60 Level Cleveland Center
21:50 41.9833 -82.6392 299° West 150 173 6,100  Climbing Cleveland Center
21:50 41.9892 -82.6561 295° West 152 175 6,000  Descending Cleveland Center
21:51 41.9989 -82.6928 290° West 155 178 6,100 60 Climbing Cleveland Center
21:51 42.0089 -82.7239 293° West 154 177 6,100 -120 Level Cleveland Center
21:52 42.0147 -82.7436 292° West 150 173 6,000 -120 Descending Cleveland Center
21:53 42.0264 -82.7775 295° West 147 169 6,000  Level Cleveland Center
21:53 42.0283 -82.7942 279° West 150 173 6,000  Level Cleveland Center
21:53 42.0364 -82.8086 307° West 147 169 6,000  Level Cleveland Center
21:55 42.0600 -82.8736 296° West 154 177 6,000  Level Cleveland Center
21:56 42.0756 -82.9275 291° West 150 173 6,000  Level Cleveland Center
21:57 42.0933 -82.9756 297° West 151 174 6,100  Climbing Cleveland Center
21:57 42.0986 -83.0233 278° West 143 165 6,000 -60 Descending Cleveland Center
21:58 42.1142 -83.0772 291° West 152 175 6,000  Level Cleveland Center
22:00 42.1358 -83.1397 295° West 152 175 6,000 60 Level Cleveland Center
22:00 42.1439 -83.1558 304° West 148 170 6,100  Climbing FAA TRACON SMA TRACON (SMA)
22:00 42.1492 -83.1708 295° West 147 169 6,000 -180 Descending FAA TRACON SMA TRACON (SMA)
22:01 42.1539 -83.1864 292° West 146 168 6,000  Level FAA TRACON SMA TRACON (SMA)
22:01 42.1569 -83.2067 281° West 143 165 6,000 120 Level FAA TRACON SMA TRACON (SMA)
22:01 42.1600 -83.2222 285° West 139 160 6,100  Climbing FAA TRACON SMA TRACON (SMA)
22:02 42.1619 -83.2381 279° West 139 160 6,000  Descending FAA TRACON SMA TRACON (SMA)
22:02 42.1644 -83.2581 280° West 139 160 6,100 120 Climbing FAA TRACON SMA TRACON (SMA)
22:02 42.1678 -83.2739 286° West 139 160 6,100 -180 Level FAA TRACON SMA TRACON (SMA)
22:03 42.1711 -83.2897 286° West 143 165 6,000 -180 Descending FAA TRACON SMA TRACON (SMA)
22:03 42.1744 -83.3100 283° West 143 165 6,000  Level FAA TRACON SMA TRACON (SMA)
22:03 42.1764 -83.3253 280° West 141 162 6,000 120 Level FAA TRACON SMA TRACON (SMA)
22:04 42.1794 -83.3431 283° West 139 160 6,100  Climbing FAA TRACON SMA TRACON (SMA)
22:04 42.1811 -83.3581 279° West 145 167 6,000  Descending FAA TRACON SMA TRACON (SMA)
22:04 42.1844 -83.3767 284° West 134 154 6,100  Climbing FAA TRACON SMA TRACON (SMA)
22:05 42.1869 -83.3953 280° West 140 161 6,000  Descending FAA TRACON SMA TRACON (SMA)
22:05 42.1900 -83.4097 286° West 134 154 6,100  Climbing FAA TRACON SMA TRACON (SMA)
22:05 42.1925 -83.4278 281° West 139 160 6,000 -180 Descending FAA TRACON SMA TRACON (SMA)
22:06 42.1950 -83.4425 283° West 139 160 6,000  Level FAA TRACON SMA TRACON (SMA)
22:06 42.1972 -83.4597 280° West 135 155 6,000 120 Level FAA TRACON SMA TRACON (SMA)
22:06 42.2003 -83.4789 282° West 133 153 6,100 120 Climbing FAA TRACON SMA TRACON (SMA)
22:07 42.2033 -83.4944 285° West 134 154 6,100 -180 Level FAA TRACON SMA TRACON (SMA)
22:07 42.2061 -83.5100 284° West 136 157 6,000 -180 Descending FAA TRACON SMA TRACON (SMA)
22:07 42.2092 -83.5297 282° West 138 159 6,000 120 Level FAA TRACON SMA TRACON (SMA)
22:08 42.2122 -83.5456 285° West 139 160 6,100  Climbing FAA TRACON SMA TRACON (SMA)
22:08 42.2139 -83.5622 278° West 141 162 6,000 -180 Descending FAA TRACON SMA TRACON (SMA)
22:08 42.2164 -83.5811 280° West 146 168 6,000 120 Level FAA TRACON SMA TRACON (SMA)
22:09 42.2206 -83.5983 288° West 138 159 6,100  Climbing FAA TRACON SMA TRACON (SMA)
22:09 42.2222 -83.6150 278° West 142 163 6,000 -180 Descending FAA TRACON SMA TRACON (SMA)
22:09 42.2244 -83.6356 278° West 144 166 6,000  Level FAA TRACON SMA TRACON (SMA)
22:10 42.2278 -83.6514 286° West 140 161 6,000 120 Level FAA TRACON SMA TRACON (SMA)
22:10 42.2314 -83.6675 287° West 144 166 6,100 120 Climbing FAA TRACON SMA TRACON (SMA)
22:10 42.2356 -83.6881 285° West 146 168 6,100  Level FAA TRACON SMA TRACON (SMA)
22:11 42.2386 -83.7044 284° West 145 167 6,100 -180 Level FAA TRACON SMA TRACON (SMA)
22:11 42.2394 -83.7186 275° West 151 174 6,000 -180 Descending FAA TRACON SMA TRACON (SMA)
22:11 42.2439 -83.7378 287° West 146 168 6,000  Level FAA TRACON SMA TRACON (SMA)
22:12 42.2497 -83.7572 292° West 139 160 6,000  Level FAA TRACON SMA TRACON (SMA)
22:12 42.2536 -83.7703 292° West 139 160 6,000 120 Level FAA TRACON SMA TRACON (SMA)
22:12 42.2589 -83.7872 293° West 138 159 6,100  Climbing FAA TRACON SMA TRACON (SMA)
22:13 42.2694 -83.8192 294° West 143 165 6,000 -120 Descending FAA TRACON SMA TRACON (SMA)
22:13 42.2775 -83.8397 298° West 143 165 6,000  Level FAA TRACON SMA TRACON (SMA)
22:14 42.2825 -83.8550 294° West 144 166 6,000  Level FAA TRACON SMA TRACON (SMA)
22:14 42.2869 -83.8700 292° West 144 166 6,000  Level FAA TRACON SMA TRACON (SMA)
22:14 42.2944 -83.8883 299° West 142 163 6,000 -180 Level FAA TRACON SMA TRACON (SMA)
22:15 42.2994 -83.9031 295° West 140 161 5,900  Descending FAA TRACON SMA TRACON (SMA)
22:15 42.3028 -83.9164 289° West 139 160 6,000 120 Climbing FAA TRACON SMA TRACON (SMA)
22:15 42.3089 -83.9325 297° West 140 161 6,000  Level FAA TRACON SMA TRACON (SMA)
22:16 42.3153 -83.9506 296° West 139 160 6,000  Level FAA TRACON SMA TRACON (SMA)
22:16 42.3211 -83.9664 296° West 137 158 6,000  Level FAA TRACON SMA TRACON (SMA)
22:16 42.3264 -83.9806 297° West 138 159 6,000 120 Level FAA TRACON SMA TRACON (SMA)
22:17 42.3319 -83.9950 297° West 139 160 6,100 120 Climbing FAA TRACON SMA TRACON (SMA)
22:17 42.3383 -84.0142 294° West 143 165 6,100  Level FAA TRACON SMA TRACON (SMA)
22:17 42.3433 -84.0300 293° West 146 168 6,100 -180 Level FAA TRACON SMA TRACON (SMA)
22:18 42.3483 -84.0458 293° West 147 169 6,000  Descending FAA TRACON SMA TRACON (SMA)
22:18 42.3553 -84.0658 295° West 149 171 6,100 120 Climbing FAA TRACON SMA TRACON (SMA)
22:18 42.3606 -84.0811 295° West 148 170 6,100  Level FAA TRACON SMA TRACON (SMA)
22:19 42.3658 -84.0967 295° West 148 170 6,100  Level FAA TRACON SMA TRACON (SMA)
22:19 42.3728 -84.1161 296° West 148 170 6,100  Level FAA TRACON SMA TRACON (SMA)
22:19 42.3789 -84.1322 297° West 153 176 6,100 120 Level FAA TRACON SMA TRACON (SMA)
22:20 42.3844 -84.1489 294° West 154 177 6,200 120 Climbing FAA TRACON SMA TRACON (SMA)
22:20 42.3917 -84.1686 296° West 153 176 6,200 -180 Level FAA TRACON SMA TRACON (SMA)
22:20 42.3969 -84.1847 294° West 153 176 6,100 -180 Descending FAA TRACON SMA TRACON (SMA)
22:21 42.4022 -84.2003 295° West 151 174 6,100  Level FAA TRACON SMA TRACON (SMA)
22:21 42.4089 -84.2200 295° West 149 171 6,100  Level FAA TRACON SMA TRACON (SMA)
22:21 42.4142 -84.2356 295° West 148 170 6,100  Level FAA TRACON SMA TRACON (SMA)
22:22 42.4192 -84.2506 294° West 145 167 6,100 -180 Level FAA TRACON SMA TRACON (SMA)
22:22 42.4244 -84.2697 290° West 142 163 6,000 2,880 Descending FAA TRACON SMA TRACON (SMA)
22:22 42.4292 -84.2850 293° West 144 166 8,100 71,220 Climbing FAA TRACON SMA TRACON (SMA)
22:23 42.4333 -84.2928 306° West 74 85 53,500 7,980 Climbing FAA TRACON SMA TRACON (SMA)
22:26 42.4925 -84.4719 294° West 50 58 40,100 -3,120 Descending FAA TRACON SMA TRACON (SMA)
22:27 42.4925 -84.4719 270° West 50 58 40,100 -60 Level FAA TRACON SMA TRACON (SMA)
22:29 42.5425 -84.6375 292° West 147 169 40,000  Descending Chicago Center
22:30 42.5600 -84.6875 295° West 145 167 40,100  Climbing Chicago Center
22:31 42.5808 -84.7378 299° West 150 173 40,100 600 Level Chicago Center
22:32 42.5900 -84.7956 282° West 153 176 41,400 -16,800 Climbing Chicago Center
22:33 42.6175 -84.8431 308° West 157 181 6,000 -17,460 Descending Chicago Center
22:34 42.6367 -84.9014 294° West 163 188 6,000  Level Chicago Center
22:35 42.6478 -84.9719 282° West 177 204 6,000  Level Chicago Center
22:36 42.6569 -85.0431 280° West 186 214 6,000  Level Chicago Center
22:37 42.6617 -85.1072 276° West 178 205 6,000  Level Chicago Center
22:38 42.6686 -85.1786 278° West 182 209 6,000  Level Chicago Center
22:39 42.6956 -85.2592 294° West 191 220 6,000  Level Chicago Center
22:41 42.7206 -85.3394 293° West 189 217 6,000  Level Chicago Center
22:42 42.7581 -85.3961 312° West 200 230 6,000  Level Chicago Center
22:43 42.8008 -85.4489 318° Northwest 203 234 6,000  Level Chicago Center
22:44 42.8311 -85.5003 309° West 189 217 6,000  Level Chicago Center
22:45 42.8561 -85.5147 337° Northwest 161 185 6,000  Level Chicago Center
22:47 42.8667 -85.5167 270° West  Level FlightAware Approximate